User: anonymous   Login
Location: Unspecified
(0.0000°N, 0.0000°E)
Time: 08:07:26
(UTC+00:00)
Language:

Kosmos-2239 - Orbit

View from above orbital plane
View from above orbital plane
View from above satellite
View from above satellite

Ground track
Ground track

The orbit data is extracted from the following two-line orbital elements,

1 22590U 93020A   19345.80082809 +.00000015 +00000-0 -75494-6 0  9991
2 22590 082.9312 107.6233 0024314 094.9078 012.7485 13.75404995339681
Epoch (UTC): 11 December 2019 19:13:11
Eccentricity: 0.0024314
inclination: 82.9312°
perigee height: 962 km
apogee height: 998 km
right ascension of ascending node: 107.6233°
argument of perigee: 94.9078°
revolutions per day: 13.75404995
mean anomaly at epoch: 12.7485°
orbit number at epoch: 33968

The dashed part of the orbit path shows where the satellite is in the earth's shadow,  

DLR